Tracking 32139 objects as of 16-Nov-2025
HD Live streaming from Space Station
objects crossing your sky now

NANOSAT(1)

Track NANOSAT(1) now!
10-day predictions
NANOSAT(1) is classified as:


NORAD ID: 28493
Int'l Code: 2004-049B
Perigee: 636.1 km
Apogee: 640.1 km
Inclination: 98.2 °
Period: 97.3 minutes
Semi major axis: 7009 km
RCS: 0.2736 m2 (medium)
Launch date: December 18, 2004
Source: Spain (SPN)
Launch site: FRENCH GUIANA (FRGUI)

Will maintain contact with Spanish zone in Antarctica; extremely small magnetic and solar sensors.
Your satellite tracking list
Your tracking list is empty




NASA's NSSDC Master Catalog

Two Line Element Set (TLE):
1 28493U 04049B   25319.77824676  .00002458  00000-0  33612-3 0  9997
2 28493  98.1994  86.7184 0002868 254.2259 105.8635 14.79488527123880
Source of the keplerian elements: AFSPC